Greenville, NC

7:56 AM EDT on August 19, 2017 (GMT -0400)
Pitt-Greenville

Weather History for KPGV - November, 2012

Change the Weather History Date:

Tuesday, November 6, 2012

  Actual Average Record
Temperature  
Mean Temperature 37 °F -  
Max Temperature 44 °F 66 °F 84 °F (1935)
Min Temperature 30 °F 41 °F 23 °F (1991)
Degree Days  
Heating Degree Days 28    
Moisture  
Dew Point 33 °F    
Average Humidity 84    
Maximum Humidity 100    
Minimum Humidity 66    
Precipitation  
Precipitation 0.03 in - - ()
Sea Level Pressure  
Sea Level Pressure 30.05 in    
Wind  
Wind Speed 5 mph (North)    
Max Wind Speed 14 mph    
Max Gust Speed 16 mph    
Visibility 10 miles    
Events      
Averages and records for this station are not official NWS values.
T = Trace of Precipitation, MM = Missing Value Source: NWS Daily Summary

Daily Weather History Graph

Daily Weather History Graph

Search for Another Location

Airport or City:

Trip Planner

Search our weather history database for the weather conditions in past years. The results will help you decide how hot, cold, wet, or windy it might be!

Date:

Astronomy

Nov. 06, 2012 Rise Set
Actual Time 6:36 AM EST 5:09 PM EST
Civil Twilight 6:10 AM EST 5:35 PM EST
Nautical Twilight 5:39 AM EST 6:06 PM EST
Astronomical Twilight 5:09 AM EST 6:36 PM EST
Moon 11:43 PM EST (11/6) 12:29 PM EST (11/6)
Length of Visible Light 11h 25m
Length of Day
10h 32m
Waning Gibbous, 53% of the Moon is Illuminated
Nov 6
Waning Gibbous
Nov 6
Last Quarter
Nov 13
New
Nov 20
First Quarter
Nov 28
Full

Hourly Weather History & Observations

Time (EST) Temp. Windchill Dew Point Humidity Pressure Visibility Wind Dir Wind Speed Gust Speed Precip Events Conditions
12:15 AM 30.2 °F - 30.2 °F 100% 30.13 in 7.0 mi Calm Calm - N/A   Clear
12:35 AM 30.2 °F - 30.2 °F 100% 30.13 in 7.0 mi Calm Calm - N/A   Clear
12:55 AM 32.0 °F - 32.0 °F 100% 30.14 in 5.0 mi Calm Calm - N/A   Clear
1:15 AM 32.0 °F - 30.2 °F 93% 30.14 in 5.0 mi Calm Calm - N/A   Clear
1:35 AM 32.0 °F - 30.2 °F 93% 30.14 in 4.0 mi Calm Calm - N/A   Clear
1:55 AM 30.2 °F - 30.2 °F 100% 30.13 in 1.8 mi Calm Calm - N/A   Unknown
2:15 AM 30.2 °F 26.7 °F 30.2 °F 100% 30.13 in 7.0 mi North 3.5 mph - N/A   Clear
2:35 AM 30.2 °F 26.7 °F 30.2 °F 100% 30.13 in 7.0 mi NNE 3.5 mph - N/A   Clear
2:55 AM 30.2 °F 26.7 °F 30.2 °F 100% 30.12 in 7.0 mi North 3.5 mph - N/A   Clear
3:15 AM 32.0 °F 28.7 °F 32.0 °F 100% 30.12 in 10.0 mi North 3.5 mph - N/A   Clear
3:35 AM 30.2 °F 24.3 °F 30.2 °F 100% 30.11 in 10.0 mi North 5.8 mph - N/A   Clear
3:55 AM 32.0 °F 27.5 °F 30.2 °F 93% 30.11 in 10.0 mi North 4.6 mph - N/A   Clear
4:15 AM 32.0 °F 25.6 °F 30.2 °F 93% 30.11 in 10.0 mi North 6.9 mph - N/A   Clear
4:35 AM 32.0 °F 26.4 °F 30.2 °F 93% 30.12 in 10.0 mi North 5.8 mph - N/A   Clear
4:55 AM 32.0 °F 27.5 °F 30.2 °F 93% 30.11 in 10.0 mi NNE 4.6 mph - N/A   Clear
5:15 AM 33.8 °F 29.6 °F 32.0 °F 93% 30.11 in 10.0 mi NE 4.6 mph - N/A   Clear
5:35 AM 33.8 °F 28.6 °F 32.0 °F 93% 30.11 in 10.0 mi NNE 5.8 mph - N/A   Clear
5:55 AM 33.8 °F 28.6 °F 32.0 °F 93% 30.10 in 10.0 mi NNE 5.8 mph - N/A   Clear
6:15 AM 33.8 °F 27.7 °F 30.2 °F 87% 30.10 in 10.0 mi North 6.9 mph - N/A   Clear
6:35 AM 33.8 °F 29.6 °F 30.2 °F 87% 30.11 in 10.0 mi North 4.6 mph - N/A   Clear
6:55 AM 35.6 °F 31.7 °F 30.2 °F 81% 30.13 in 10.0 mi North 4.6 mph - N/A   Clear
7:15 AM 35.6 °F 29.9 °F 32.0 °F 87% 30.13 in 10.0 mi NNE 6.9 mph - N/A   Clear
7:35 AM 35.6 °F 28.6 °F 32.0 °F 87% 30.11 in 10.0 mi NNE 9.2 mph - N/A   Clear
7:55 AM 35.6 °F 28.6 °F 32.0 °F 87% 30.11 in 10.0 mi NNE 9.2 mph - N/A   Clear
8:15 AM 37.4 °F 30.8 °F 32.0 °F 81% 30.11 in 10.0 mi NNE 9.2 mph - N/A   Clear
8:35 AM 37.4 °F 31.4 °F 32.0 °F 81% 30.12 in 10.0 mi NNE 8.1 mph - N/A   Mostly Cloudy
8:55 AM 37.4 °F 32.1 °F 32.0 °F 81% 30.14 in 10.0 mi North 6.9 mph - N/A   Overcast
9:15 AM 39.2 °F 32.5 °F 32.0 °F 75% 30.13 in 10.0 mi NNE 10.4 mph - N/A   Scattered Clouds
9:35 AM 41.0 °F 34.3 °F 32.0 °F 70% 30.11 in 10.0 mi North 11.5 mph - N/A   Scattered Clouds
9:55 AM 41.0 °F 33.5 °F 32.0 °F 70% 30.09 in 10.0 mi NNE 13.8 mph - N/A   Clear
10:15 AM 41.0 °F 34.7 °F 32.0 °F 70% 30.10 in 10.0 mi North 10.4 mph - N/A   Clear
10:35 AM 42.8 °F 36.6 °F 32.0 °F 66% 30.10 in 10.0 mi NNE 11.5 mph - N/A   Clear
10:55 AM 42.8 °F 37.5 °F 32.0 °F 66% 30.09 in 10.0 mi NNE 9.2 mph - N/A   Clear
11:15 AM 42.8 °F 36.6 °F 32.0 °F 66% 30.08 in 10.0 mi NNE 11.5 mph - N/A   Clear
11:35 AM 42.8 °F 37.0 °F 32.0 °F 66% 30.07 in 10.0 mi NNE 10.4 mph - N/A   Clear
11:55 AM 42.8 °F 38.0 °F 33.8 °F 70% 30.06 in 10.0 mi NNE 8.1 mph - N/A   Scattered Clouds
12:15 PM 42.8 °F 36.6 °F 33.8 °F 70% 30.05 in 10.0 mi NNE 11.5 mph - N/A   Scattered Clouds
12:35 PM 42.8 °F 38.0 °F 33.8 °F 70% 30.05 in 10.0 mi North 8.1 mph - N/A   Mostly Cloudy
12:55 PM 42.8 °F 38.6 °F 33.8 °F 70% 30.06 in 10.0 mi North 6.9 mph - N/A   Overcast
1:15 PM 42.8 °F 39.3 °F 35.6 °F 76% 30.04 in 10.0 mi North 5.8 mph - N/A   Overcast
1:35 PM 44.6 °F 40.7 °F 35.6 °F 71% 30.05 in 10.0 mi NNE 6.9 mph - N/A   Overcast
1:55 PM 42.8 °F 37.5 °F 35.6 °F 76% 30.04 in 10.0 mi NNE 9.2 mph - N/A   Overcast
2:15 PM 42.8 °F 37.0 °F 35.6 °F 76% 30.03 in 10.0 mi NNE 10.4 mph - N/A   Overcast
2:35 PM 42.8 °F 36.2 °F 35.6 °F 76% 30.00 in 10.0 mi NNE 12.7 mph - N/A   Overcast
2:55 PM 42.8 °F 38.0 °F 35.6 °F 76% 29.99 in 10.0 mi NNE 8.1 mph 16.1 mph N/A   Overcast
3:15 PM 42.8 °F 38.6 °F 35.6 °F 76% 30.00 in 10.0 mi North 6.9 mph - N/A   Overcast
3:35 PM 42.8 °F 37.5 °F 35.6 °F 76% 29.99 in 10.0 mi North 9.2 mph - N/A   Overcast
3:55 PM 42.8 °F 37.5 °F 35.6 °F 76% 30.00 in 10.0 mi NE 9.2 mph - N/A   Overcast
4:15 PM 42.8 °F 38.0 °F 35.6 °F 76% 29.98 in 10.0 mi North 8.1 mph - N/A   Overcast
4:35 PM 42.8 °F 37.5 °F 35.6 °F 76% 29.97 in 10.0 mi North 9.2 mph - N/A   Overcast
4:55 PM 42.8 °F 38.0 °F 35.6 °F 76% 29.97 in 10.0 mi North 8.1 mph - N/A   Overcast
5:15 PM 42.8 °F 38.0 °F 35.6 °F 76% 29.96 in 10.0 mi North 8.1 mph - N/A   Overcast
5:35 PM 42.8 °F 38.0 °F 35.6 °F 76% 29.96 in 10.0 mi North 8.1 mph - N/A   Overcast
5:55 PM 42.8 °F 40.1 °F 35.6 °F 76% 29.97 in 10.0 mi North 4.6 mph - N/A   Overcast
6:15 PM 42.8 °F 37.5 °F 35.6 °F 76% 29.98 in 10.0 mi NNE 9.2 mph - N/A   Overcast
6:35 PM 42.8 °F 40.1 °F 35.6 °F 76% 29.98 in 10.0 mi North 4.6 mph - N/A   Overcast
6:55 PM 41.0 °F 38.0 °F 37.4 °F 87% 29.98 in 10.0 mi North 4.6 mph - 0.01 in   Overcast
7:15 PM 41.0 °F 38.0 °F 37.4 °F 87% 29.98 in 10.0 mi North 4.6 mph - N/A   Overcast
7:35 PM 41.0 °F 38.0 °F 37.4 °F 87% 29.98 in 10.0 mi North 4.6 mph - 0.01 in   Overcast
7:55 PM 39.2 °F 35.0 °F 37.4 °F 93% 29.97 in 10.0 mi North 5.8 mph - 0.01 in   Overcast
8:15 PM 39.2 °F 35.0 °F 35.6 °F 87% 29.96 in 10.0 mi North 5.8 mph - N/A   Overcast
8:35 PM 39.2 °F 33.0 °F 35.6 °F 87% 29.96 in 10.0 mi North 9.2 mph - N/A   Overcast
8:55 PM 39.2 °F 33.0 °F 35.6 °F 87% 29.96 in 10.0 mi North 9.2 mph - N/A   Overcast
9:15 PM 37.4 °F 30.3 °F 35.6 °F 93% 29.95 in 10.0 mi North 10.4 mph - 0.01 in   Overcast
9:35 PM 37.4 °F 32.1 °F 35.6 °F 93% 29.95 in 10.0 mi North 6.9 mph - 0.01 in   Overcast
9:55 PM 37.4 °F 31.4 °F 35.6 °F 93% 29.95 in 10.0 mi NNW 8.1 mph - 0.01 in   Overcast
10:15 PM 37.4 °F 31.4 °F 33.8 °F 87% 29.94 in 10.0 mi North 8.1 mph - N/A   Overcast
10:35 PM 37.4 °F 32.1 °F 33.8 °F 87% 29.93 in 10.0 mi North 6.9 mph - N/A   Overcast
10:55 PM 37.4 °F 32.1 °F 33.8 °F 87% 29.93 in 10.0 mi NNW 6.9 mph - N/A   Overcast
11:15 PM 37.4 °F 30.8 °F 33.8 °F 87% 29.91 in 10.0 mi North 9.2 mph - N/A   Overcast
11:35 PM 37.4 °F 32.1 °F 33.8 °F 87% 29.91 in 10.0 mi North 6.9 mph - N/A   Overcast
11:55 PM 37.4 °F 32.1 °F 33.8 °F 87% 29.91 in 10.0 mi North 6.9 mph - N/A   Overcast